,,,PA_Meas_PMT16A,,PR_Meas_QMR101_102,,RH_Meas_QMH101,,SR_Meas_QMS101,,TA_Meas_QMH101,,GenWind,,GenWind,
date,time,status,PA,status,PR,status,RH,status,SR,status,TA,status,DirAvg,status,SpdAvg,
2009-11-16, 00:00:04,VALID,1002.1,VALID,0,VALID,95.3686,VALID,0,VALID,22.7499,VALID,2,VALID,0,
2009-11-16, 00:01:04,VALID,1002.09,VALID,0,VALID,95.3839,VALID,0,VALID,22.7093,VALID,2,VALID,0,
2009-11-16, 00:02:04,VALID,1002.08,VALID,0,VALID,95.3991,VALID,0,VALID,22.6898,VALID,2,VALID,0,
2009-11-16, 00:03:04,VALID,1002.08,VALID,0,VALID,95.3915,VALID,0,VALID,22.711,VALID,2,VALID,0,
2009-11-16, 00:04:04,VALID,1002.05,VALID,0,VALID,95.4068,VALID,0.100563,VALID,22.7287,VALID,2,VALID,0,
2009-11-16, 00:05:04,VALID,1002.05,VALID,0,VALID,95.4068,VALID,0.100563,VALID,22.7482,VALID,2,VALID,0,
2009-11-16, 00:06:04,VALID,1002.05,VALID,0,VALID,95.422,VALID,0,VALID,22.8083,VALID,2,VALID,0,
2009-11-16, 00:07:04,VALID,1002,VALID,0,VALID,95.4144,VALID,0,VALID,22.8066,VALID,2,VALID,0,
2009-11-16, 00:08:04,VALID,1001.99,VALID,0,VALID,95.422,VALID,0.100563,VALID,22.8278,VALID,2,VALID,0,
2009-11-16, 00:09:04,VALID,1001.99,VALID,0,VALID,95.4297,VALID,0,VALID,22.7677,VALID,2,VALID,0,
2009-11-16, 00:10:04,VALID,1001.96,VALID,0,VALID,95.4373,VALID,0,VALID,22.7694,VALID,2,VALID,0,
2009-11-16, 00:11:04,VALID,1001.96,VALID,0,VALID,95.422,VALID,0,VALID,22.7499,VALID,2,VALID,0,
2009-11-16, 00:12:04,VALID,1001.93,VALID,0,VALID,95.4449,VALID,0,VALID,22.7305,VALID,2,VALID,0,
2009-11-16, 00:13:04,VALID,1001.91,VALID,0,VALID,95.4144,VALID,0,VALID,22.6704,VALID,2,VALID,0,
2009-11-16, 00:14:04,VALID,1001.92,VALID,0,VALID,95.4449,VALID,0,VALID,22.6915,VALID,2,VALID,0,
2009-11-16, 00:15:04,VALID,1001.93,VALID,0,VALID,95.4297,VALID,0,VALID,22.7093,VALID,2,VALID,0,
2009-11-16, 00:16:04,VALID,1001.94,VALID,0,VALID,95.4449,VALID,0,VALID,22.711,VALID,2,VALID,0.484375,
2009-11-16, 00:17:04,VALID,1001.86,VALID,0,VALID,95.4297,VALID,0,VALID,22.6898,VALID,2,VALID,0.441016,
2009-11-16, 00:18:04,VALID,1001.86,VALID,0,VALID,95.4068,VALID,0,VALID,22.6898,VALID,2,VALID,0.430078,
2009-11-16, 00:19:04,VALID,1001.87,VALID,0,VALID,95.4373,VALID,0,VALID,22.6898,VALID,2,VALID,0.278906,
2009-11-16, 00:20:04,VALID,1001.84,VALID,0,VALID,95.4449,VALID,0,VALID,22.6915,VALID,2,VALID,0.238672,
2009-11-16, 00:21:04,VALID,1001.8,VALID,0,VALID,95.4373,VALID,0,VALID,22.6704,VALID,2,VALID,0.0105469,
2009-11-16, 00:22:04,VALID,1001.81,VALID,0,VALID,95.4602,VALID,0,VALID,22.6509,VALID,2,VALID,0,
2009-11-16, 00:23:04,VALID,1001.82,VALID,0,VALID,95.4526,VALID,0,VALID,22.6509,VALID,2,VALID,0,
2009-11-16, 00:24:04,VALID,1001.83,VALID,0,VALID,95.4449,VALID,0,VALID,22.6721,VALID,2,VALID,0,
2009-11-16, 00:25:04,VALID,1001.85,VALID,0,VALID,95.4526,VALID,0,VALID,22.6315,VALID,2,VALID,0,
2009-11-16, 00:26:04,VALID,1001.85,VALID,0,VALID,95.4602,VALID,0,VALID,22.6526,VALID,2,VALID,0,
2009-11-16, 00:27:04,VALID,1001.84,VALID,0,VALID,95.4526,VALID,0,VALID,22.6721,VALID,2,VALID,0,
2009-11-16, 00:28:04,VALID,1001.85,VALID,0,VALID,95.4449,VALID,0,VALID,22.6721,VALID,2,VALID,0,
2009-11-16, 00:29:04,VALID,1001.85,VALID,0,VALID,95.4526,VALID,0,VALID,22.6509,VALID,2,VALID,0,
2009-11-16, 00:30:04,VALID,1001.81,VALID,0,VALID,95.4602,VALID,0,VALID,22.6509,VALID,2,VALID,0,
2009-11-16, 00:31:04,VALID,1001.82,VALID,0,VALID,95.4602,VALID,0,VALID,22.6509,VALID,2,VALID,0,
2009-11-16, 00:32:04,VALID,1001.79,VALID,0,VALID,95.4602,VALID,0,VALID,22.6315,VALID,2,VALID,0.289844,
2009-11-16, 00:33:04,VALID,1001.8,VALID,0,VALID,95.4526,VALID,0,VALID,22.612,VALID,2,VALID,0.542188,
2009-11-16, 00:34:04,VALID,1001.79,VALID,0,VALID,95.4526,VALID,0,VALID,22.5925,VALID,2,VALID,0.493359,
2009-11-16, 00:35:04,VALID,1001.79,VALID,0,VALID,95.4602,VALID,0,VALID,22.5731,VALID,2,VALID,0.473437,
2009-11-16, 00:36:04,VALID,1001.74,VALID,0,VALID,95.4449,VALID,0,VALID,22.5748,VALID,2,VALID,0.621094,
2009-11-16, 00:37:04,VALID,1001.75,VALID,0,VALID,95.4678,VALID,0,VALID,22.5342,VALID,2,VALID,0.637891,
2009-11-16, 00:38:04,VALID,1001.74,VALID,0,VALID,95.4678,VALID,0,VALID,22.5553,VALID,2,VALID,0.500781,
2009-11-16, 00:39:04,VALID,1001.73,VALID,0,VALID,95.4754,VALID,0,VALID,22.5342,VALID,2,VALID,0.328516,
2009-11-16, 00:40:04,VALID,1001.74,VALID,0,VALID,95.4754,VALID,0,VALID,22.5147,VALID,2,VALID,0.326172,
2009-11-16, 00:41:04,VALID,1001.71,VALID,0,VALID,95.4754,VALID,0,VALID,22.5147,VALID,2,VALID,0.0609375,
2009-11-16, 00:42:04,VALID,1001.73,VALID,0,VALID,95.4678,VALID,0,VALID,22.4953,VALID,2,VALID,0,
2009-11-16, 00:43:04,VALID,1001.82,VALID,0,VALID,95.4831,VALID,0,VALID,22.4953,VALID,2,VALID,0,
2009-11-16, 00:44:04,VALID,1001.8,VALID,0,VALID,95.4831,VALID,0,VALID,22.4758,VALID,2,VALID,0,
2009-11-16, 00:45:04,VALID,1001.86,VALID,0,VALID,95.4831,VALID,0,VALID,22.4758,VALID,2,VALID,0,
2009-11-16, 00:46:04,VALID,1001.82,VALID,0,VALID,95.4678,VALID,0,VALID,22.5164,VALID,2,VALID,0,
2009-11-16, 00:47:04,VALID,1001.85,VALID,0,VALID,95.4907,VALID,0,VALID,22.4953,VALID,2,VALID,0,
2009-11-16, 00:48:04,VALID,1001.85,VALID,0,VALID,95.4983,VALID,0,VALID,22.5164,VALID,2,VALID,0.255469,
2009-11-16, 00:49:04,VALID,1001.82,VALID,0,VALID,95.4678,VALID,0,VALID,22.5553,VALID,2,VALID,0.540625,
2009-11-16, 00:50:04,VALID,1001.79,VALID,0,VALID,95.4754,VALID,0,VALID,22.5342,VALID,2,VALID,0.566406,
2009-11-16, 00:51:04,VALID,1001.79,VALID,0,VALID,95.4907,VALID,0,VALID,22.5342,VALID,2,VALID,0.613672,
2009-11-16, 00:52:04,VALID,1001.78,VALID,0,VALID,95.506,VALID,0,VALID,22.5359,VALID,2,VALID,0.480078,
2009-11-16, 00:53:04,VALID,1001.76,VALID,0,VALID,95.5136,VALID,0,VALID,22.5164,VALID,2,VALID,0.566016,
2009-11-16, 00:54:04,VALID,1001.74,VALID,0,VALID,95.4983,VALID,0,VALID,22.4953,VALID,2,VALID,0.467969,
2009-11-16, 00:55:04,VALID,1001.76,VALID,0,VALID,95.506,VALID,0,VALID,22.5147,VALID,2,VALID,0.329297,
2009-11-16, 00:56:04,VALID,1001.76,VALID,0,VALID,95.506,VALID,0,VALID,22.4758,VALID,2,VALID,0.235547,
2009-11-16, 00:57:04,VALID,1001.77,VALID,0,VALID,95.506,VALID,0,VALID,22.4563,VALID,2,VALID,0.413672,
2009-11-16, 00:58:04,VALID,1001.78,VALID,0,VALID,95.506,VALID,0,VALID,22.4775,VALID,2,VALID,0.339453,
2009-11-16, 00:59:04,VALID,1001.76,VALID,0,VALID,95.506,VALID,0,VALID,22.4792,VALID,2,VALID,0.25625,
2009-11-16, 01:00:04,VALID,1001.77,VALID,0,VALID,95.5136,VALID,0,VALID,22.4563,VALID,2,VALID,0.335156,
2009-11-16, 01:01:04,VALID,1001.73,VALID,0,VALID,95.5212,VALID,0,VALID,22.497,VALID,2,VALID,0.462891,
2009-11-16, 01:02:04,VALID,1001.74,VALID,0,VALID,95.5136,VALID,0,VALID,22.4953,VALID,2,VALID,0.536719,
2009-11-16, 01:03:04,VALID,1001.69,VALID,0,VALID,95.5441,VALID,0,VALID,22.5342,VALID,2,VALID,0.641406,
2009-11-16, 01:04:04,VALID,1001.66,VALID,0,VALID,95.5288,VALID,0,VALID,22.5536,VALID,2,VALID,0.730469,
2009-11-16, 01:05:04,VALID,1001.67,VALID,0,VALID,95.5212,VALID,0,VALID,22.5536,VALID,2,VALID,0.884375,
2009-11-16, 01:06:04,VALID,1001.65,VALID,0,VALID,95.567,VALID,0,VALID,22.5147,VALID,2,VALID,0.733594,
2009-11-16, 01:07:04,VALID,1001.66,VALID,0,VALID,95.5288,VALID,0,VALID,22.5164,VALID,2,VALID,0.541016,
2009-11-16, 01:08:04,VALID,1001.68,VALID,0,VALID,95.5365,VALID,0,VALID,22.5536,VALID,2,VALID,0.407422,
2009-11-16, 01:09:04,VALID,1001.69,VALID,0,VALID,95.5517,VALID,0,VALID,22.5536,VALID,2,VALID,0.314063,
2009-11-16, 01:10:04,VALID,1001.71,VALID,0,VALID,95.5441,VALID,0,VALID,22.5942,VALID,2,VALID,0.142578,
2009-11-16, 01:11:04,VALID,1001.72,VALID,0,VALID,95.5594,VALID,0,VALID,22.5731,VALID,2,VALID,0,
2009-11-16, 01:12:04,VALID,1001.74,VALID,0,VALID,95.5441,VALID,0,VALID,22.5731,VALID,2,VALID,0,
2009-11-16, 01:13:04,VALID,1001.74,VALID,0,VALID,95.567,VALID,0.100563,VALID,22.5731,VALID,2,VALID,0,
2009-11-16, 01:14:04,VALID,1001.72,VALID,0,VALID,95.567,VALID,0.100563,VALID,22.5925,VALID,2,VALID,0,
2009-11-16, 01:15:04,VALID,1001.76,VALID,0,VALID,95.5746,VALID,0,VALID,22.612,VALID,2,VALID,0.153125,
2009-11-16, 01:16:04,VALID,1001.74,VALID,0,VALID,95.5594,VALID,0,VALID,22.5519,VALID,2,VALID,0.435937,
2009-11-16, 01:17:04,VALID,1001.72,VALID,0,VALID,95.5899,VALID,0,VALID,22.5536,VALID,2,VALID,0.447656,
2009-11-16, 01:18:04,VALID,1001.7,VALID,0,VALID,95.567,VALID,0.100563,VALID,22.5536,VALID,2,VALID,0.326562,
2009-11-16, 01:19:04,VALID,1001.7,VALID,0,VALID,95.5746,VALID,0.100563,VALID,22.5536,VALID,2,VALID,0.647656,
2009-11-16, 01:20:04,VALID,1001.71,VALID,0,VALID,95.5594,VALID,0.100563,VALID,22.5925,VALID,2,VALID,0.803516,
2009-11-16, 01:21:04,VALID,1001.71,VALID,0,VALID,95.5822,VALID,0,VALID,22.5731,VALID,2,VALID,0.541406,
2009-11-16, 01:22:04,VALID,1001.71,VALID,0,VALID,95.5822,VALID,0.100563,VALID,22.5536,VALID,2,VALID,0.539063,
2009-11-16, 01:23:04,VALID,1001.74,VALID,0,VALID,95.5746,VALID,0,VALID,22.5536,VALID,2,VALID,0.415625,
2009-11-16, 01:24:04,VALID,1001.72,VALID,0,VALID,95.5822,VALID,0,VALID,22.5536,VALID,2,VALID,0.481641,
2009-11-16, 01:25:04,VALID,1001.73,VALID,0,VALID,95.5899,VALID,0,VALID,22.5942,VALID,2,VALID,0.400781,
2009-11-16, 01:26:04,VALID,1001.72,VALID,0,VALID,95.5975,VALID,0.100563,VALID,22.5925,VALID,2,VALID,0.246094,
2009-11-16, 01:27:04,VALID,1001.72,VALID,0,VALID,95.5822,VALID,0.100563,VALID,22.5519,VALID,2,VALID,0,
2009-11-16, 01:28:04,VALID,1001.7,VALID,0,VALID,95.5899,VALID,0,VALID,22.5536,VALID,2,VALID,0,
2009-11-16, 01:29:04,VALID,1001.7,VALID,0,VALID,95.5746,VALID,0,VALID,22.5536,VALID,2,VALID,0,
2009-11-16, 01:30:04,VALID,1001.69,VALID,0,VALID,95.5822,VALID,0,VALID,22.5942,VALID,2,VALID,0,
2009-11-16, 01:31:04,VALID,1001.68,VALID,0,VALID,95.5822,VALID,0,VALID,22.6137,VALID,2,VALID,0,
2009-11-16, 01:32:04,VALID,1001.7,VALID,0,VALID,95.5899,VALID,0,VALID,22.5925,VALID,2,VALID,0,
2009-11-16, 01:33:04,VALID,1001.67,VALID,0,VALID,95.5899,VALID,0,VALID,22.6137,VALID,2,VALID,0,
2009-11-16, 01:34:04,VALID,1001.65,VALID,0,VALID,95.5899,VALID,0.100563,VALID,22.612,VALID,2,VALID,0,
2009-11-16, 01:35:04,VALID,1001.68,VALID,0,VALID,95.5899,VALID,0,VALID,22.6315,VALID,2,VALID,0,
2009-11-16, 01:36:04,VALID,1001.67,VALID,0,VALID,95.5822,VALID,0,VALID,22.6103,VALID,2,VALID,0,
2009-11-16, 01:37:04,VALID,1001.7,VALID,0,VALID,95.6051,VALID,0,VALID,22.612,VALID,2,VALID,0,
2009-11-16, 01:38:04,VALID,1001.7,VALID,0,VALID,95.6051,VALID,0.100563,VALID,22.5908,VALID,2,VALID,0,
2009-11-16, 01:39:04,VALID,1001.7,VALID,0,VALID,95.5899,VALID,0.100563,VALID,22.5731,VALID,2,VALID,0,
2009-11-16, 01:40:04,VALID,1001.72,VALID,0,VALID,95.6051,VALID,0,VALID,22.5731,VALID,2,VALID,0,
2009-11-16, 01:41:04,VALID,1001.72,VALID,0,VALID,95.6051,VALID,0.100563,VALID,22.5942,VALID,2,VALID,0,
2009-11-16, 01:42:04,VALID,1001.72,VALID,0,VALID,95.5975,VALID,0.100563,VALID,22.5714,VALID,2,VALID,0,
2009-11-16, 01:43:04,VALID,1001.71,VALID,0,VALID,95.5975,VALID,0.100563,VALID,22.5925,VALID,2,VALID,0,
2009-11-16, 01:44:04,VALID,1001.68,VALID,0,VALID,95.6051,VALID,0.100563,VALID,22.5925,VALID,2,VALID,0,
2009-11-16, 01:45:04,VALID,1001.68,VALID,0,VALID,95.5899,VALID,0.100563,VALID,22.5925,VALID,2,VALID,0,
2009-11-16, 01:46:04,VALID,1001.68,VALID,0,VALID,95.6051,VALID,0,VALID,22.5731,VALID,2,VALID,0,
2009-11-16, 01:47:04,VALID,1001.69,VALID,0,VALID,95.6128,VALID,0.100563,VALID,22.5731,VALID,2,VALID,0,
2009-11-16, 01:48:04,VALID,1001.67,VALID,0,VALID,95.5975,VALID,0.100563,VALID,22.5731,VALID,2,VALID,0,
2009-11-16, 01:49:04,VALID,1001.66,VALID,0,VALID,95.6051,VALID,0,VALID,22.5519,VALID,2,VALID,0,
2009-11-16, 01:50:04,VALID,1001.65,VALID,0,VALID,95.5899,VALID,0,VALID,22.5731,VALID,2,VALID,0,
2009-11-16, 01:51:04,VALID,1001.62,VALID,0,VALID,95.5822,VALID,0,VALID,22.5731,VALID,2,VALID,0,
2009-11-16, 01:52:04,VALID,1001.62,VALID,0,VALID,95.5975,VALID,0,VALID,22.5942,VALID,2,VALID,0,
2009-11-16, 01:53:04,VALID,1001.62,VALID,0,VALID,95.5899,VALID,0.100563,VALID,22.5731,VALID,2,VALID,0,
2009-11-16, 01:54:04,VALID,1001.58,VALID,0,VALID,95.5822,VALID,0,VALID,22.5536,VALID,2,VALID,0,
2009-11-16, 01:55:04,VALID,1001.59,VALID,0,VALID,95.6051,VALID,0,VALID,22.5536,VALID,2,VALID,0,
2009-11-16, 01:56:04,VALID,1001.58,VALID,0,VALID,95.5975,VALID,0.100563,VALID,22.5731,VALID,2,VALID,0,
2009-11-16, 01:57:04,VALID,1001.58,VALID,0,VALID,95.5899,VALID,0.100563,VALID,22.5925,VALID,2,VALID,0,
2009-11-16, 01:58:04,VALID,1001.57,VALID,0,VALID,95.5822,VALID,0,VALID,22.6137,VALID,2,VALID,0,
2009-11-16, 01:59:04,VALID,1001.54,VALID,0,VALID,95.6204,VALID,0,VALID,22.5519,VALID,2,VALID,0,
2009-11-16, 02:00:04,VALID,1001.55,VALID,0,VALID,95.5822,VALID,0,VALID,22.5536,VALID,2,VALID,0,
2009-11-16, 02:01:04,VALID,1001.52,VALID,0,VALID,95.6128,VALID,0.100563,VALID,22.5731,VALID,2,VALID,0,
2009-11-16, 02:02:04,VALID,1001.49,VALID,0,VALID,95.5899,VALID,0,VALID,22.5731,VALID,2,VALID,0,
2009-11-16, 02:03:04,VALID,1001.46,VALID,0,VALID,95.6051,VALID,0,VALID,22.5553,VALID,2,VALID,0,
2009-11-16, 02:04:04,VALID,1001.44,VALID,0,VALID,95.6128,VALID,0,VALID,22.5147,VALID,2,VALID,0,
2009-11-16, 02:05:04,VALID,1001.41,VALID,0,VALID,95.6051,VALID,0,VALID,22.5147,VALID,2,VALID,0,
2009-11-16, 02:06:04,VALID,1001.4,VALID,0,VALID,95.5899,VALID,0,VALID,22.5147,VALID,2,VALID,0,
2009-11-16, 02:07:04,VALID,1001.4,VALID,0,VALID,95.6128,VALID,0,VALID,22.4953,VALID,2,VALID,0,
2009-11-16, 02:08:04,VALID,1001.38,VALID,0,VALID,95.6051,VALID,0,VALID,22.4563,VALID,2,VALID,0,
2009-11-16, 02:09:04,VALID,1001.34,VALID,0,VALID,95.5899,VALID,0,VALID,22.4758,VALID,2,VALID,0,
2009-11-16, 02:10:04,VALID,1001.34,VALID,0,VALID,95.6051,VALID,0,VALID,22.5147,VALID,2,VALID,0,
2009-11-16, 02:11:04,VALID,1001.33,VALID,0,VALID,95.5822,VALID,0,VALID,22.5147,VALID,2,VALID,0,
2009-11-16, 02:12:04,VALID,1001.28,VALID,0,VALID,95.6051,VALID,0,VALID,22.5147,VALID,2,VALID,0,
2009-11-16, 02:13:04,VALID,1001.28,VALID,0,VALID,95.6051,VALID,0,VALID,22.513,VALID,2,VALID,0,
2009-11-16, 02:14:04,VALID,1001.28,VALID,0,VALID,95.6204,VALID,0,VALID,22.5359,VALID,2,VALID,0,
2009-11-16, 02:15:04,VALID,1001.26,VALID,0,VALID,95.6128,VALID,0,VALID,22.5147,VALID,2,VALID,0,
2009-11-16, 02:16:04,VALID,1001.26,VALID,0,VALID,95.6128,VALID,0,VALID,22.5147,VALID,2,VALID,0,
2009-11-16, 02:17:04,VALID,1001.22,VALID,0,VALID,95.6204,VALID,0,VALID,22.5359,VALID,2,VALID,0,
2009-11-16, 02:18:04,VALID,1001.23,VALID,0,VALID,95.6051,VALID,0,VALID,22.5359,VALID,2,VALID,0,
2009-11-16, 02:19:04,VALID,1001.23,VALID,0,VALID,95.6051,VALID,0.100563,VALID,22.4953,VALID,2,VALID,0,
2009-11-16, 02:20:04,VALID,1001.23,VALID,0,VALID,95.628,VALID,0,VALID,22.4758,VALID,2,VALID,0,
2009-11-16, 02:21:04,VALID,1001.23,VALID,0,VALID,95.628,VALID,0,VALID,22.4563,VALID,2,VALID,0,
2009-11-16, 02:22:04,VALID,1001.22,VALID,0,VALID,95.6128,VALID,0.100563,VALID,22.4369,VALID,2,VALID,0,
2009-11-16, 02:23:04,VALID,1001.21,VALID,0,VALID,95.6128,VALID,0,VALID,22.4386,VALID,2,VALID,0,
2009-11-16, 02:24:04,VALID,1001.24,VALID,0,VALID,95.628,VALID,0.100563,VALID,22.398,VALID,2,VALID,0,
2009-11-16, 02:25:04,VALID,1001.25,VALID,0,VALID,95.6128,VALID,0,VALID,22.3785,VALID,2,VALID,0,
2009-11-16, 02:26:04,VALID,1001.28,VALID,0,VALID,95.6356,VALID,0,VALID,22.3785,VALID,2,VALID,0,
2009-11-16, 02:27:04,VALID,1001.28,VALID,0,VALID,95.628,VALID,0,VALID,22.4191,VALID,2,VALID,0,
2009-11-16, 02:28:04,VALID,1001.26,VALID,0,VALID,95.6204,VALID,0,VALID,22.4563,VALID,2,VALID,0,
2009-11-16, 02:29:04,VALID,1001.27,VALID,0,VALID,95.6204,VALID,0,VALID,22.497,VALID,2,VALID,0,
2009-11-16, 02:30:04,VALID,1001.3,VALID,0,VALID,95.6356,VALID,0,VALID,22.5147,VALID,2,VALID,0,
2009-11-16, 02:31:04,VALID,1001.31,VALID,0,VALID,95.6356,VALID,0,VALID,22.5342,VALID,2,VALID,0,
2009-11-16, 02:32:04,VALID,1001.31,VALID,0,VALID,95.6356,VALID,0,VALID,22.4953,VALID,2,VALID,0,
2009-11-16, 02:33:04,VALID,1001.33,VALID,0,VALID,95.6204,VALID,0.100563,VALID,22.5164,VALID,2,VALID,0,
2009-11-16, 02:34:04,VALID,1001.31,VALID,0,VALID,95.628,VALID,0,VALID,22.4563,VALID,2,VALID,0,
2009-11-16, 02:35:04,VALID,1001.3,VALID,0,VALID,95.6356,VALID,0,VALID,22.5164,VALID,2,VALID,0,
2009-11-16, 02:36:04,VALID,1001.31,VALID,0,VALID,95.6433,VALID,0,VALID,22.4953,VALID,2,VALID,0,
2009-11-16, 02:37:04,VALID,1001.3,VALID,0,VALID,95.6433,VALID,0,VALID,22.4953,VALID,2,VALID,0,
2009-11-16, 02:38:04,VALID,1001.31,VALID,0,VALID,95.628,VALID,0.100563,VALID,22.4758,VALID,2,VALID,0,
2009-11-16, 02:39:04,VALID,1001.28,VALID,0,VALID,95.6356,VALID,0,VALID,22.4563,VALID,2,VALID,0,
2009-11-16, 02:40:04,VALID,1001.28,VALID,0,VALID,95.6356,VALID,0.100563,VALID,22.4369,VALID,2,VALID,0,
2009-11-16, 02:41:04,VALID,1001.25,VALID,0,VALID,95.6204,VALID,0,VALID,22.4369,VALID,2,VALID,0,
2009-11-16, 02:42:04,VALID,1001.23,VALID,0,VALID,95.628,VALID,0,VALID,22.398,VALID,2,VALID,0,
2009-11-16, 02:43:04,VALID,1001.2,VALID,0,VALID,95.6356,VALID,0.100563,VALID,22.398,VALID,2,VALID,0,
2009-11-16, 02:44:04,VALID,1001.19,VALID,0,VALID,95.6356,VALID,0.100563,VALID,22.4174,VALID,2,VALID,0,
2009-11-16, 02:45:04,VALID,1001.18,VALID,0,VALID,95.6433,VALID,0,VALID,22.4369,VALID,2,VALID,0,
2009-11-16, 02:46:04,VALID,1001.16,VALID,0,VALID,95.6433,VALID,0.100563,VALID,22.4758,VALID,2,VALID,0,
2009-11-16, 02:47:04,VALID,1001.15,VALID,0,VALID,95.628,VALID,0.100563,VALID,22.5147,VALID,2,VALID,0,
2009-11-16, 02:48:04,VALID,1001.12,VALID,0,VALID,95.6509,VALID,0.100563,VALID,22.5536,VALID,2,VALID,0,
2009-11-16, 02:49:04,VALID,1001.13,VALID,0,VALID,95.6356,VALID,0.100563,VALID,22.5748,VALID,2,VALID,0,
2009-11-16, 02:50:04,VALID,1001.12,VALID,0,VALID,95.6509,VALID,0,VALID,22.5553,VALID,2,VALID,0,
2009-11-16, 02:51:04,VALID,1001.11,VALID,0,VALID,95.6509,VALID,0,VALID,22.5147,VALID,2,VALID,0,
2009-11-16, 02:52:04,VALID,1001.12,VALID,0,VALID,95.6356,VALID,0.100563,VALID,22.5342,VALID,2,VALID,0,
2009-11-16, 02:53:04,VALID,1001.09,VALID,0,VALID,95.6509,VALID,0,VALID,22.5164,VALID,2,VALID,0,
2009-11-16, 02:54:04,VALID,1001.04,VALID,0,VALID,95.6662,VALID,0,VALID,22.5164,VALID,2,VALID,0,
2009-11-16, 02:55:04,VALID,1001.02,VALID,0,VALID,95.6356,VALID,0.100563,VALID,22.5553,VALID,2,VALID,0,
2009-11-16, 02:56:04,VALID,1001,VALID,0,VALID,95.6356,VALID,0.100563,VALID,22.5147,VALID,2,VALID,0,
2009-11-16, 02:57:04,VALID,1001.02,VALID,0,VALID,95.6662,VALID,0,VALID,22.5147,VALID,2,VALID,0,
2009-11-16, 02:58:04,VALID,1000.98,VALID,0,VALID,95.6585,VALID,0.100563,VALID,22.5536,VALID,2,VALID,0,
2009-11-16, 02:59:04,VALID,1000.98,VALID,0,VALID,95.6662,VALID,0.100563,VALID,22.5731,VALID,2,VALID,0,
2009-11-16, 03:00:04,VALID,1000.96,VALID,0,VALID,95.6585,VALID,0,VALID,22.612,VALID,2,VALID,0,
2009-11-16, 03:01:04,VALID,1000.93,VALID,0,VALID,95.6662,VALID,0,VALID,22.6509,VALID,2,VALID,0,
2009-11-16, 03:02:04,VALID,1000.94,VALID,0,VALID,95.6662,VALID,0,VALID,22.6526,VALID,2,VALID,0,
2009-11-16, 03:03:04,VALID,1000.94,VALID,0,VALID,95.6509,VALID,0,VALID,22.5942,VALID,2,VALID,0,
2009-11-16, 03:04:04,VALID,1000.95,VALID,0,VALID,95.6585,VALID,0,VALID,22.5536,VALID,2,VALID,0,
2009-11-16, 03:05:04,VALID,1000.95,VALID,0,VALID,95.6738,VALID,0.100563,VALID,22.5359,VALID,2,VALID,0,
2009-11-16, 03:06:04,VALID,1000.91,VALID,0,VALID,95.6738,VALID,0,VALID,22.4758,VALID,2,VALID,0,
2009-11-16, 03:07:04,VALID,1000.92,VALID,0,VALID,95.6814,VALID,0,VALID,22.398,VALID,2,VALID,0,
2009-11-16, 03:08:04,VALID,1000.9,VALID,0,VALID,95.6662,VALID,0,VALID,22.398,VALID,2,VALID,0,
2009-11-16, 03:09:04,VALID,1000.87,VALID,0,VALID,95.6509,VALID,0,VALID,22.4369,VALID,2,VALID,0,
2009-11-16, 03:10:04,VALID,1000.84,VALID,0,VALID,95.6738,VALID,0.100563,VALID,22.4369,VALID,2,VALID,0,
2009-11-16, 03:11:04,VALID,1000.83,VALID,0,VALID,95.6585,VALID,0,VALID,22.4563,VALID,2,VALID,0,
2009-11-16, 03:12:04,VALID,1000.79,VALID,0,VALID,95.6738,VALID,0.100563,VALID,22.4563,VALID,2,VALID,0,
2009-11-16, 03:13:04,VALID,1000.82,VALID,0,VALID,95.6662,VALID,0,VALID,22.497,VALID,2,VALID,0,
2009-11-16, 03:14:04,VALID,1000.78,VALID,0,VALID,95.6662,VALID,0,VALID,22.4775,VALID,2,VALID,0,
2009-11-16, 03:15:04,VALID,1000.76,VALID,0,VALID,95.6662,VALID,0,VALID,22.4563,VALID,2,VALID,0,
2009-11-16, 03:16:04,VALID,1000.76,VALID,0,VALID,95.6738,VALID,0,VALID,22.458,VALID,2,VALID,0,
2009-11-16, 03:17:04,VALID,1000.78,VALID,0,VALID,95.689,VALID,0,VALID,22.4563,VALID,2,VALID,0,
2009-11-16, 03:18:04,VALID,1000.79,VALID,0,VALID,95.6967,VALID,0,VALID,22.4775,VALID,2,VALID,0,
2009-11-16, 03:19:04,VALID,1000.81,VALID,0,VALID,95.6662,VALID,0,VALID,22.4563,VALID,2,VALID,0,
2009-11-16, 03:20:04,VALID,1000.8,VALID,0,VALID,95.6967,VALID,0,VALID,22.497,VALID,2,VALID,0,
2009-11-16, 03:21:04,VALID,1000.8,VALID,0,VALID,95.6738,VALID,0,VALID,22.4563,VALID,2,VALID,0,
2009-11-16, 03:22:04,VALID,1000.81,VALID,0,VALID,95.6662,VALID,0.100563,VALID,22.4758,VALID,2,VALID,0,
2009-11-16, 03:23:04,VALID,1000.79,VALID,0,VALID,95.6738,VALID,0,VALID,22.4953,VALID,2,VALID,0,
2009-11-16, 03:24:04,VALID,1000.79,VALID,0,VALID,95.6662,VALID,0,VALID,22.5342,VALID,2,VALID,0,
2009-11-16, 03:25:04,VALID,1000.78,VALID,0,VALID,95.689,VALID,0,VALID,22.5731,VALID,2,VALID,0,
2009-11-16, 03:26:04,VALID,1000.77,VALID,0,VALID,95.6967,VALID,0.100563,VALID,22.5731,VALID,2,VALID,0,
2009-11-16, 03:27:04,VALID,1000.78,VALID,0,VALID,95.689,VALID,0,VALID,22.5925,VALID,2,VALID,0,
2009-11-16, 03:28:04,VALID,1000.8,VALID,0,VALID,95.689,VALID,0,VALID,22.6332,VALID,2,VALID,0,
2009-11-16, 03:29:04,VALID,1000.78,VALID,0,VALID,95.7043,VALID,0.100563,VALID,22.5925,VALID,2,VALID,0,
2009-11-16, 03:30:04,VALID,1000.84,VALID,0,VALID,95.7043,VALID,0,VALID,22.5731,VALID,2,VALID,0,
2009-11-16, 03:31:04,VALID,1000.84,VALID,0,VALID,95.7119,VALID,0.100563,VALID,22.612,VALID,2,VALID,0,
2009-11-16, 03:32:04,VALID,1000.85,VALID,0,VALID,95.7043,VALID,0.100563,VALID,22.6315,VALID,2,VALID,0,
2009-11-16, 03:33:04,VALID,1000.86,VALID,0,VALID,95.7119,VALID,0,VALID,22.612,VALID,2,VALID,0,
2009-11-16, 03:34:04,VALID,1000.87,VALID,0,VALID,95.7119,VALID,0,VALID,22.5942,VALID,2,VALID,0,
2009-11-16, 03:35:04,VALID,1000.88,VALID,0,VALID,95.7043,VALID,0.100563,VALID,22.5342,VALID,2,VALID,0,
2009-11-16, 03:36:04,VALID,1000.93,VALID,0,VALID,95.7196,VALID,0.100563,VALID,22.4953,VALID,2,VALID,0,
2009-11-16, 03:37:04,VALID,1000.91,VALID,0,VALID,95.7119,VALID,0.100563,VALID,22.5164,VALID,2,VALID,0,
2009-11-16, 03:38:04,VALID,1000.91,VALID,0,VALID,95.7196,VALID,0,VALID,22.4953,VALID,2,VALID,0,
2009-11-16, 03:39:04,VALID,1000.91,VALID,0,VALID,95.7119,VALID,0,VALID,22.4758,VALID,2,VALID,0,
2009-11-16, 03:40:04,VALID,1000.89,VALID,0,VALID,95.6967,VALID,0.100563,VALID,22.4352,VALID,2,VALID,0,
2009-11-16, 03:41:04,VALID,1000.87,VALID,0,VALID,95.7043,VALID,0.100563,VALID,22.4563,VALID,2,VALID,0,
2009-11-16, 03:42:04,VALID,1000.88,VALID,0,VALID,95.7196,VALID,0,VALID,22.4563,VALID,2,VALID,0,
2009-11-16, 03:43:04,VALID,1000.9,VALID,0,VALID,95.7043,VALID,0,VALID,22.4758,VALID,2,VALID,0,
2009-11-16, 03:44:04,VALID,1000.87,VALID,0,VALID,95.7348,VALID,0,VALID,22.497,VALID,2,VALID,0,
2009-11-16, 03:45:04,VALID,1000.86,VALID,0,VALID,95.7119,VALID,0.100563,VALID,22.4953,VALID,2,VALID,0,
2009-11-16, 03:46:04,VALID,1000.89,VALID,0,VALID,95.7272,VALID,0,VALID,22.4953,VALID,2,VALID,0,
2009-11-16, 03:47:04,VALID,1000.91,VALID,0,VALID,95.7424,VALID,0,VALID,22.4758,VALID,2,VALID,0,
2009-11-16, 03:48:04,VALID,1000.94,VALID,0,VALID,95.7119,VALID,0,VALID,22.4563,VALID,2,VALID,0,
2009-11-16, 03:49:04,VALID,1000.9,VALID,0,VALID,95.7501,VALID,0,VALID,22.4369,VALID,2,VALID,0,
2009-11-16, 03:50:04,VALID,1000.88,VALID,0,VALID,95.7424,VALID,0,VALID,22.4369,VALID,2,VALID,0,
2009-11-16, 03:51:04,VALID,1000.85,VALID,0,VALID,95.7272,VALID,0,VALID,22.4174,VALID,2,VALID,0,
2009-11-16, 03:52:04,VALID,1000.85,VALID,0,VALID,95.7348,VALID,0,VALID,22.4174,VALID,2,VALID,0,
2009-11-16, 03:53:04,VALID,1000.84,VALID,0,VALID,95.7424,VALID,0.100563,VALID,22.4174,VALID,2,VALID,0,
2009-11-16, 03:54:04,VALID,1000.79,VALID,0,VALID,95.7196,VALID,0.100563,VALID,22.4369,VALID,2,VALID,0,
2009-11-16, 03:55:04,VALID,1000.78,VALID,0,VALID,95.7501,VALID,0,VALID,22.4174,VALID,2,VALID,0,
2009-11-16, 03:56:04,VALID,1000.77,VALID,0,VALID,95.7424,VALID,0,VALID,22.4386,VALID,2,VALID,0,
2009-11-16, 03:57:04,VALID,1000.75,VALID,0,VALID,95.7119,VALID,0,VALID,22.4369,VALID,2,VALID,0,